Showing default

BNU-1, 44529

Orbit data source: Space-Track

BNU-1, 44529 is a payload satellite owned by BNU (CN) in SSO that was launched on Thu, 12 Sep 2019 UTC via a CHANG ZHENG 4B launch vehicle from the Taiyaun Space Center, China (TSC). Payload-class satellites include a variety of spacecraft equipped with specific instruments for various scientific and technological missions. These include communications satellites like Starlink; space stations such as the ISS; scientific satellites like the Hubble; Earth observation satellites from companies like Planet Labs, Umbra, and HawkEye 360; GPS; miniature CubeSats for education and research; and military/defense satellites.

Loading next visibility...
Identifier
44529, 2019-059B
Orbit
SSO
Country
Flag of CNCN / PRC
Related business
Manufacturer
BNU
Mission
Operational Amateur Imaging
Bus & Motor
BNU, Unknown motor
Mass
16 kg wet, 16 kg dry
Launch date (UTC)
2019-09-12 (7 years ago)
Launch vehicle
CHANG ZHENG 4B
Launch site
Taiyaun Space Center, China (TSC)
Object type
Payload
Rocket body
Debris
Shape & HBR
Box + 1 Pan, Unknown HBR
Radar Cross Section
0.194 m², Medium (>0.1 m² and < 1m²)

Expand to show TLE details & history
Last TLE update: 8 hours ago

TLE from 8 hours ago
0 BNU-1
1 44529U 19059B   26095.26917782  .00001203  00000-0  33387-3 0  9995
2 44529  98.5944 223.0463 0012352 230.3647 129.6456 14.48330092346430
Epoch: 2026-04-05T06:27Z
TLE epoch observation values (Epoch: 2026-04-05T06:27:36.963Z)
Latitude
-0.00004°
Longitude
-67.43473°
Altitude
739.675 km
Speed
7.482 km/s
True Right ascension
14h 52m 11s
True Declination
0° 00' 00"
Sunlit
Object was in full shadow at epoch
Visualization orbit readout
Latitude
Unknown
Longitude
Unknown
Altitude
Unknown
Speed
Unknown
Apparent Right ascension
Unknown
Apparent Declination
Unknown
Sunlit
N/A
Visualization observer readout
Local Sidereal Time
20:31:52
Azimuth
Unknown
Elevation
Unknown
Doppler factor
Unknown
Orbital elements
Apogee altitude
737.001 km
Perigee altitude
719.445 km
Semi-major axis
7,106.36 km
Eccentricity
0.00124
Inclination
98.5944°
RAAN
223.0463°
Arg. of periapsis
230.3647°
True anomaly
129.75448°
Mean anomaly
129.6456°
Eccentric anomaly
129.70005°
Mean motion
3.62303 °/min
Orbital period
99.36 mins
BSTAR
0.00033387
Loading maneuver chart data...
Computing Atmospheric mass density...
Loading historical data...
Loading historical data...
Loading historical data...
Loading historical data...
Loading historical data...
Loading historical data...
Loading historical data...
Other satellites on launch #59 in the year 2019 (2019-09-12 UTC)

Documentation

Showing up to 5 results
|